Home   Weather   Daly City   Past weeks

Flag for USA Past Weather in Daly City, California, USA — Yesterday and Last 2 Weeks

Now
57 °F

Mostly cloudy.


Feels Like: 57 °F
Forecast: 55 / 59 °F
Wind: No wind

Location: San Francisco International Airport

Current Time: Dec 9, 2016 at 11:38:13 am

Latest Report: Dec 9, 2016 at 10:56 am


Visibility: 10 mi

Pressure: 30.25 "Hg

Humidity: 93%

Dew Point: 55 °F

Location of Daly CityLocation

Past Weather in Daly City — Graph

°F

Daly City Temperature Yesterday

Maximum temperature yesterday: 61 °F (at 2:56 pm)
Minimum temperature yesterday: 49 °F (at 12:56 am)
Average temperature yesterday: 54 °F

High & Low Weather Summary for the Past Weeks

 TemperatureHumidityPressure
High62 °F (Dec 2, 2:56 pm)97% (Dec 8, 11:56 am)30.32 "Hg (Dec 8, 11:56 am)
Low42 °F (Dec 7, 3:56 am)35% (Dec 2, 2:56 pm)29.80 "Hg (Nov 26, 3:56 am)
Average53 °F73%30.10 "Hg
* Reported Nov 24 9:56 am — Dec 9 9:56 am, Daly City, Weather by CustomWeather, © 2016

Note: Actual official high and low records may vary slightly from our data, if they occured in-between our weather recording intervals... More about our weather records

Advertising

Daly City Weather History for the Previous 24 Hours

Scroll right to see more
 ConditionsComfort  
Time TempWeatherWind HumidityBarometerVisibility
9:56 am
Fri, Dec 9
59 °FMostly cloudy.5 mph90%30.26 "Hg9 mi
8:56 am59 °FMore clouds than sun.5 mph84%30.24 "Hg4 mi
7:56 am59 °FMostly cloudy.3 mph84%30.22 "Hg10 mi
6:56 am60 °FMostly cloudy.6 mph80%30.21 "Hg10 mi
5:56 am60 °FPartly cloudy.7 mph80%30.20 "Hg10 mi
4:56 am60 °FPassing clouds.5 mph83%30.19 "Hg10 mi
3:56 am59 °FMostly cloudy.3 mph87%30.19 "Hg8 mi
2:56 am57 °FLight rain. Mostly cloudy.5 mph93%30.20 "Hg10 mi
1:56 am57 °FOvercast.6 mph93%30.20 "Hg10 mi
12:56 am57 °FMostly cloudy.5 mph93%30.20 "Hg10 mi
11:56 pm
Thu, Dec 8
58 °FPartly cloudy.5 mph90%30.20 "Hg10 mi
10:56 pm58 °FMostly cloudy.5 mph90%30.19 "Hg10 mi
9:56 pm58 °FPassing clouds.5 mph93%30.18 "Hg9 mi
8:56 pm58 °FPassing clouds.6 mph93%30.17 "Hg10 mi
7:56 pm57 °FLight rain. Passing clouds.5 mph96%30.16 "Hg10 mi
6:56 pm58 °FLight rain. Mostly cloudy.No wind93%30.14 "Hg10 mi
5:56 pm59 °FLight rain. Overcast.6 mph93%30.14 "Hg7 mi
4:59 pm59 °FFog.6 mph93%30.13 "Hg4 mi
3:56 pm59 °FFog.3 mph90%30.11 "Hg4 mi
2:56 pm61 °FMostly cloudy.5 mph90%30.11 "Hg9 mi
1:56 pm60 °FLight rain. Fog.6 mph93%30.11 "Hg2 mi
12:56 pm55 °FLight rain. Fog.3 mph93%30.11 "Hg2 mi
11:56 am54 °FFog.5 mph97%30.11 "Hg2 mi
Weather by CustomWeather, © 2016

See weather overviewHow to use our weather pages